Regional Weather Roundup
Issued by NWS

Home | Current Version | Previous Version | Graphics & Text | Print | Product List | Glossary On
Versions: 1 2 3 4 5 6 7 8 9 10 11 12 13 14 15 16 17 18 19 20 21 22 23 24 25 26 27 28 29 30 31 32 33 34 35 36 37 38 39 40 41 42 43 44 45 46 47 48 49 50
000
ASUS43 KMKX 280310
RWRWI

WISCONSIN REGIONAL WEATHER ROUNDUP
NATIONAL WEATHER SERVICE MILWAUKEE/SULLIVAN WI
1000 PM CDT FRI MAR 27 2015

NOTE: "FAIR" INDICATES FEW OR NO CLOUDS BELOW 12,000 FEET WITH NO
SIGNIFICANT WEATHER AND/OR OBSTRUCTIONS TO VISIBILITY.

WIZ001-002-006>008-014>016-023>028-280400-
NORTHWEST WISCONSIN

CITY           SKY/WX    TMP DP  RH WIND       PRES   REMARKS
SUPERIOR ARPT  PTCLDY    26  13  59 NE5       30.19S WCI  20
ASHLAND        CLEAR     14  10  84 CALM      30.20S
HAYWARD        PTCLDY    25   8  48 NE6       30.16R WCI  18
SIREN          MOCLDY    25   9  51 CALM      30.17R
CUMBERLAND     PTCLDY    27  14  59 CALM      30.15R
RICE LAKE      PTCLDY    24  11  56 CALM      30.17R
CHETEK         PTCLDY    23  11  60 E5        30.16S WCI  17
LADYSMITH      CLEAR     25  13  59 SW3       30.17R
EAU CLAIRE     PTCLDY    26   9  48 SW5       30.17R WCI  20
MENOMONIE      PTCLDY    28  13  53 SW5       30.18R WCI  23
NEW RICHMOND   MOCLDY    27  12  55 SW6       30.18R WCI  20
OSCEOLA        MOCLDY    27  14  57 S6        30.20R WCI  21
$$

WIZ003>005-009-010-017-018-280400-
NORTH CENTRAL WISCONSIN

CITY           SKY/WX    TMP DP  RH WIND       PRES   REMARKS
MANITOWISH WTR CLEAR     19   5  54 E3        30.14S
ARBOR VITAE    CLEAR     22   6  49 CALM      30.14S
WOODRUFF       CLEAR     22   6  49 CALM      30.14S
RHINELANDER    CLEAR     19   1  45 CALM      30.14R
EAGLE RIVER    CLEAR     18   1  48 CALM      30.14S
LAND O LAKES   CLEAR     11   4  73 CALM      30.15S
PHILLIPS       MOCLDY    24   9  51 NE6       30.14R WCI  17
TOMAHAWK       CLEAR     16   4  61 CALM      30.15S
MEDFORD        CLEAR     24  12  60 SW5       30.14S WCI  18
MERRILL        CLEAR     18   9  66 CALM      30.15S
$$

WIZ029-030-035-036-043>047-280400-
CENTRAL WISCONSIN

CITY           SKY/WX    TMP DP  RH WIND       PRES   REMARKS
WAUSAU         CLEAR     23   9  55 CALM      30.15R
MOSINEE        CLEAR     23   9  54 CALM      30.17
MARSHFIELD     CLEAR     23  14  68 CALM      30.16S
STEVENS POINT  CLEAR     19   7  59 CALM      30.18S
WAUPACA        CLEAR     23  11  58 CALM      30.20R
WAUTOMA        CLEAR     20  11  68 CALM      30.20R
WISC RAPIDS    CLEAR     21   9  59 CALM      30.19R
CAMP DOUGLAS   CLEAR     20  10  64 SE2       30.18R
$$

WIZ011>013-019>022-031-037>040-048>050-280400-
NORTHEAST WISCONSIN

CITY           SKY/WX    TMP DP  RH WIND       PRES   REMARKS
ANTIGO         CLEAR     17  10  74 CALM      30.15S
SHAWANO        CLEAR     22  12  64 CALM      30.22R
OCONTO         CLEAR     21   7  54 CALM      30.22S
STURGEON BAY   CLEAR     19   3  49 CALM      30.24R
GREEN BAY      CLEAR     24  12  60 E5        30.22R WCI  18
MANITOWOC      FAIR      21  13  71 CALM      30.23R
APPLETON       CLEAR     25   5  42 VRB5      30.20R WCI  19
CLINTONVILLE   CLEAR     23  10  58 SE3       30.20R
OSHKOSH        CLEAR     23  10  57 E3        30.20R
$$

WIZ032>034-041-042-053>061-280400-
SOUTHWEST WISCONSIN

CITY           SKY/WX    TMP DP  RH WIND       PRES   REMARKS
LA CROSSE      PTCLDY    29  13  51 CALM      30.19R
SPARTA         CLEAR     19  10  66 E3        30.20R
VIROQUA        PTCLDY    26  10  52 SW3       30.16S
BOSCOBEL       CLEAR     23  11  60 CALM      30.21R
PRAIRIE DU CHI CLEAR     26  11  54 CALM      30.21S
PLATTEVILLE    CLEAR     27   9  47 SW5       30.18S WCI  21
$$

WIZ056-057-062-063-064-067-068-280400-
SOUTH CENTRAL WISCONSIN

CITY           SKY/WX    TMP DP  RH WIND       PRES   REMARKS
REEDSBURG      CLEAR     24   7  48 CALM      30.19R
BARABOO/DELLS  CLEAR     24   8  52 E5        30.19R WCI  18
LONE ROCK      CLEAR     24  17  74 NW3       30.20R
MINERAL POINT  CLEAR     23  10  58 W5        30.17S WCI  17
MADISON        CLEAR     24   7  48 E5        30.20R WCI  18
MIDDLETON      CLEAR     28   9  45 E3        30.20R
WATERTOWN      CLEAR     21  10  61 SE3       30.20R
MONROE         CLEAR     28   9  43 CALM      30.18R
JANESVILLE     CLEAR     23  14  68 E6        30.20R WCI  16
$$

WIZ051-052-058>065-066-070>072-280400-
SOUTHEAST WISCONSIN

CITY           SKY/WX    TMP DP  RH WIND       PRES   REMARKS
MILWAUKEE      CLEAR     24  12  60 NE6       30.21R WCI  17
WAUKESHA       CLEAR     19  12  73 CALM      30.21R
MILWAUKEE/TIMM FAIR      21  12  68 CALM      30.23R
RACINE         CLEAR     23  12  62 N7        30.23R WCI  15
BURLINGTON     CLEAR     19  12  73 CALM      30.21R
KENOSHA        CLEAR     22  14  71 N5        30.21R WCI  16
FOND DU LAC    CLEAR     22  11  62 SE8       30.20R WCI  12
SHEBOYGAN      FAIR      20  14  77 CALM      30.21R
WEST BEND      CLEAR     19  12  73 CALM      30.21R
JUNEAU         CLEAR     23   8  53 CALM      30.21R
$$

LSZ147-162-280400-
LAKE SUPERIOR

STATION/POSITION TIME  TEMP    WIND        PRES    WAVE
                       AIR SEA DIR/SP/G            HT/PER
                 (UTC) (F)     (DEG/KT/KT) (MB)    (FT/S)
DEVILS ISLAND    0300   22     130/  5/  6 1024.2R
PORT WING        0200   25     140/  3/  6 1022.0
$$

LMZ867-665-643>646-280400-
LAKE MICHIGAN

STATION/POSITION TIME  TEMP    WIND        PRES    WAVE
                       AIR SEA DIR/SP/G            HT/PER
                 (UTC) (F)     (DEG/KT/KT) (MB)    (FT/S)
NORTHPORT PIER   0218   20      20/ 10/ 14 1023.7R
SISTER BAY       0202   18        CALM       N/A
KEWAUNEE LAKESHO 0200           40/  9/ 12 1022.1R
SHEBOYGAN LAKESH 0300   25      20/  9/ 12 1024.6R
PORT WASHINGTON  0200   24     340/  3/  5 1023.7
MILWAUKEE LAKESH 0200   26      20/ 10/ 12   N/A
KENOSHA   LAKESH 0300   27      10/ 12/ 17 1023.0R
$$

TC  - TEMPERATURE IN CELSIUS
VSB - VISIBILITY IN STATUTE MILES
WCI - WIND CHILL INDEX
HX  - HEAT INDEX




USA.gov is the U.S. government's official web portal to all federal, state and local government web resources and services.